Location: Sternwarte-Kraichtal
(49.1689°N, 8.6996°E)
Time: 18:50:23
(UTC+02:00)

Vanguard 2 Rocket - Pass Details

Date: 04 June 2022
Orbit: 553 x 3323 km, 32.9° (Epoch: 02 July)

Event Time Altitude Azimuth Distance (km) Brightness Sun altitude
Rises 18:22:27 0° 275° (W) 7,199 12.8 26.7°
Reaches altitude 10° 18:29:30 10° 262° (W) 5,892 12.7 25.5°
Maximum altitude 18:40:00 20° 225° (SW) 4,418 11.1 23.8°
Drops below altitude 10° 18:48:09 10° 185° (S) 4,412 10.4 22.5°
Sets 18:52:23 0° 168° (SSE) 4,942 10.5 21.8°
